Weather History for York, NE

Change the Weather History Date:

Thursday, February 13, 2014

  Actual Average Record
Temperature  
Mean Temperature 38 °F -  
Max Temperature 53 °F 38 °F 69 °F (1967)
Min Temperature 24 °F 17 °F -2 °F (1958)
Degree Days  
Heating Degree Days 26    
Moisture  
Dew Point 29 °F    
Average Humidity 72    
Maximum Humidity 93    
Minimum Humidity 41    
Precipitation  
Precipitation 0.00 in - - ()
Sea Level Pressure  
Sea Level Pressure 29.73 in    
Wind  
Wind Speed 14 mph (WSW)    
Max Wind Speed 18 mph    
Max Gust Speed 25 mph    
Visibility 10 miles    
Events Rain    
Averages and records for this station are not official NWS values.
T = Trace of Precipitation, MM = Missing Value Source: NWS Daily Summary

Daily Weather History Graph

Daily Weather History Graph

Search for Another Location

Airport:

Trip Planner

Search our weather history database for the weather conditions in past years. The results will help you decide how hot, cold, wet, or windy it might be!

Date:

Astronomy

Feb. 13, 2014 Rise Set
Actual Time 7:27 AM CST 6:02 PM CST
Civil Twilight 6:58 AM CST 6:31 PM CST
Nautical Twilight 6:26 AM CST 7:03 PM CST
Astronomical Twilight 5:54 AM CST 7:35 PM CST
Moon 5:12 PM CST (2/13) 6:21 AM CST (2/13)
Length of Visible Light 11h 32m
Length of Day
10h 35m
Waxing Gibbous, 99% of the Moon is Illuminated
Feb 13
Waxing Gibbous
Feb 14
Full
Feb 22
Last Quarter
Mar 1
New
Mar 8
First Quarter

Hourly Weather History & Observations

Time (CST) Temp. Windchill Dew Point Humidity Pressure Visibility Wind Dir Wind Speed Gust Speed Precip Events Conditions
12:15 AM 28.4 °F 16.6 °F 26.6 °F 93% 29.79 in 10.0 mi SSW 16.1 mph 20.7 mph N/A   Overcast
12:35 AM 28.4 °F 17.5 °F 26.6 °F 93% 29.78 in 10.0 mi SSW 13.8 mph - N/A   Overcast
12:55 AM 28.4 °F 16.2 °F 26.6 °F 93% 29.77 in 10.0 mi SSW 17.3 mph 21.9 mph N/A   Overcast
1:15 AM 28.4 °F 16.2 °F 26.6 °F 93% 29.77 in 10.0 mi SSW 17.3 mph 21.9 mph N/A   Overcast
1:35 AM 30.2 °F 18.9 °F 26.6 °F 86% 29.75 in 10.0 mi SSW 16.1 mph 21.9 mph N/A   Overcast
1:55 AM 32.0 °F 21.2 °F 26.6 °F 80% 29.75 in 10.0 mi SSW 16.1 mph 24.2 mph N/A   Overcast
2:15 AM 32.0 °F 21.2 °F 26.6 °F 80% 29.75 in 10.0 mi SW 16.1 mph 21.9 mph N/A   Overcast
2:35 AM 32.0 °F 20.8 °F 26.6 °F 80% 29.74 in 10.0 mi SW 17.3 mph 25.3 mph N/A   Overcast
2:55 AM 32.0 °F 20.5 °F 24.8 °F 75% 29.73 in 10.0 mi SW 18.4 mph - N/A   Overcast
3:15 AM 32.0 °F 20.8 °F 24.8 °F 75% 29.72 in 10.0 mi SW 17.3 mph - N/A   Overcast
3:35 AM 32.0 °F 20.5 °F 24.8 °F 75% 29.71 in 10.0 mi SW 18.4 mph 21.9 mph N/A   Overcast
3:55 AM 32.0 °F 21.2 °F 24.8 °F 75% 29.72 in 10.0 mi SW 16.1 mph - N/A   Overcast
4:15 AM 32.0 °F 20.8 °F 24.8 °F 75% 29.73 in 10.0 mi WSW 17.3 mph 20.7 mph N/A   Scattered Clouds
4:35 AM 30.2 °F 19.3 °F 24.8 °F 80% 29.73 in 10.0 mi WSW 15.0 mph - N/A   Clear
4:55 AM 28.4 °F 18.5 °F 24.8 °F 86% 29.73 in 10.0 mi WSW 11.5 mph - N/A   Clear
5:15 AM 28.4 °F 17.5 °F 24.8 °F 86% 29.73 in 10.0 mi SW 13.8 mph - N/A   Clear
5:35 AM 28.4 °F 17.5 °F 24.8 °F 86% 29.73 in 10.0 mi WSW 13.8 mph - N/A   Clear
5:55 AM 28.4 °F 18.5 °F 24.8 °F 86% 29.73 in 10.0 mi WSW 11.5 mph - N/A   Clear
6:15 AM 26.6 °F 15.7 °F 24.8 °F 93% 29.74 in 10.0 mi WSW 12.7 mph - N/A   Clear
6:35 AM 26.6 °F 16.2 °F 24.8 °F 93% 29.74 in 10.0 mi West 11.5 mph - N/A   Clear
6:55 AM 24.8 °F 14.6 °F 23.0 °F 93% 29.74 in 10.0 mi WSW 10.4 mph - N/A   Clear
7:15 AM 24.8 °F 14.0 °F 23.0 °F 93% 29.75 in 10.0 mi West 11.5 mph - N/A   Clear
7:35 AM 24.8 °F 13.4 °F 23.0 °F 93% 29.75 in 10.0 mi West 12.7 mph - N/A   Clear
7:55 AM 24.8 °F 12.9 °F 23.0 °F 93% 29.76 in 10.0 mi West 13.8 mph - N/A   Clear
8:15 AM 26.6 °F 16.2 °F 23.0 °F 86% 29.76 in 10.0 mi West 11.5 mph - N/A   Clear
8:35 AM 30.2 °F 20.8 °F 26.6 °F 86% 29.77 in 10.0 mi West 11.5 mph - N/A   Clear
8:55 AM 32.0 °F 22.1 °F 28.4 °F 87% 29.78 in 10.0 mi WNW 13.8 mph - N/A   Clear
9:15 AM 37.4 °F 28.9 °F 28.4 °F 70% 29.78 in 10.0 mi WNW 13.8 mph - N/A   Clear
9:35 AM 39.2 °F 31.6 °F 30.2 °F 70% 29.79 in 10.0 mi WNW 12.7 mph - N/A   Clear
9:55 AM 41.0 °F 33.5 °F 32.0 °F 70% 29.79 in 10.0 mi WNW 13.8 mph - N/A   Clear
10:15 AM 42.8 °F 35.1 °F 32.0 °F 66% 29.79 in 10.0 mi NW 16.1 mph - N/A   Clear
10:35 AM 44.6 °F 38.1 °F 32.0 °F 61% 29.78 in 10.0 mi NW 13.8 mph 20.7 mph N/A   Clear
10:55 AM 44.6 °F 37.8 °F 32.0 °F 61% 29.78 in 10.0 mi NW 15.0 mph - N/A   Clear
11:15 AM 46.4 °F 39.5 °F 32.0 °F 57% 29.78 in 10.0 mi NW 17.3 mph - N/A   Clear
11:35 AM 46.4 °F 40.4 °F 32.0 °F 57% 29.79 in 10.0 mi NW 13.8 mph - N/A   Clear
11:55 AM 48.2 °F - 32.0 °F 54% 29.79 in 10.0 mi NW 15.0 mph - N/A   Clear
12:15 PM 48.2 °F - 32.0 °F 54% 29.79 in 10.0 mi NW 17.3 mph - N/A   Clear
12:35 PM 50.0 °F - 32.0 °F 50% 29.78 in 10.0 mi NW 15.0 mph 19.6 mph N/A   Clear
12:55 PM 50.0 °F - 32.0 °F 50% 29.77 in 10.0 mi WNW 13.8 mph - N/A   Clear
1:35 PM 51.8 °F - 32.0 °F 47% 29.75 in 10.0 mi WNW 11.5 mph - N/A   Clear
1:55 PM 51.8 °F - 32.0 °F 47% 29.75 in 10.0 mi WNW 13.8 mph - N/A   Clear
2:15 PM 53.6 °F - 32.0 °F 44% 29.74 in 10.0 mi NW 16.1 mph - N/A   Clear
2:35 PM 53.6 °F - 32.0 °F 44% 29.74 in 10.0 mi NW 13.8 mph - N/A   Clear
2:55 PM 53.6 °F - 32.0 °F 44% 29.74 in 10.0 mi WNW 13.8 mph - N/A   Clear
3:15 PM 53.6 °F - 32.0 °F 44% 29.74 in 10.0 mi WNW 15.0 mph - N/A   Clear
3:35 PM 53.6 °F - 30.2 °F 41% 29.74 in 10.0 mi NW 12.7 mph - N/A   Clear
3:55 PM 53.6 °F - 32.0 °F 44% 29.74 in 10.0 mi WNW 11.5 mph - N/A   Clear
4:15 PM 53.6 °F - 32.0 °F 44% 29.73 in 10.0 mi WNW 6.9 mph - N/A   Clear
4:35 PM 53.6 °F - 32.0 °F 44% 29.73 in 10.0 mi WNW 8.1 mph - N/A   Clear
4:55 PM 51.8 °F - 32.0 °F 47% 29.73 in 10.0 mi West 8.1 mph - N/A   Clear
5:15 PM 50.0 °F - 32.0 °F 50% 29.72 in 10.0 mi West 6.9 mph - N/A   Clear
5:55 PM 46.4 °F 42.9 °F 32.0 °F 57% 29.72 in 10.0 mi SW 6.9 mph - N/A   Clear
6:15 PM 42.8 °F 39.3 °F 32.0 °F 66% 29.72 in 10.0 mi SW 5.8 mph - N/A   Clear
6:35 PM 41.0 °F 36.4 °F 32.0 °F 70% 29.72 in 10.0 mi SW 6.9 mph - N/A   Clear
6:55 PM 39.2 °F 35.0 °F 32.0 °F 75% 29.72 in 10.0 mi SW 5.8 mph - N/A   Clear
7:15 PM 39.2 °F 35.9 °F 32.0 °F 75% 29.72 in 10.0 mi SW 4.6 mph - N/A   Clear
7:35 PM 41.0 °F 38.0 °F 32.0 °F 70% 29.71 in 10.0 mi SSW 4.6 mph - N/A   Partly Cloudy
7:55 PM 39.2 °F 35.0 °F 32.0 °F 75% 29.71 in 10.0 mi SSW 5.8 mph - N/A   Clear
8:15 PM 39.2 °F 35.0 °F 32.0 °F 75% 29.70 in 10.0 mi South 5.8 mph - N/A   Clear
8:35 PM 37.4 °F 32.1 °F 32.0 °F 81% 29.69 in 10.0 mi South 6.9 mph - N/A   Clear
8:55 PM 35.6 °F 30.7 °F 32.0 °F 87% 29.68 in 10.0 mi South 5.8 mph - N/A   Clear
9:15 PM 37.4 °F 32.8 °F 32.0 °F 81% 29.68 in 10.0 mi South 5.8 mph - N/A   Clear
9:35 PM 37.4 °F 32.1 °F 32.0 °F 81% 29.67 in 10.0 mi SSE 6.9 mph - N/A   Scattered Clouds
9:55 PM 37.4 °F 32.1 °F 32.0 °F 81% 29.66 in 10.0 mi SE 6.9 mph - N/A   Overcast
10:15 PM 35.6 °F 30.7 °F 32.0 °F 87% 29.65 in 10.0 mi SE 5.8 mph - N/A   Overcast
10:35 PM 37.4 °F 31.4 °F 32.0 °F 81% 29.64 in 10.0 mi SE 8.1 mph - N/A   Overcast
10:55 PM 35.6 °F 27.5 °F 32.0 °F 87% 29.62 in 10.0 mi ESE 11.5 mph - N/A   Overcast
11:15 PM 37.4 °F 31.4 °F 32.0 °F 81% 29.62 in 10.0 mi East 8.1 mph - N/A   Overcast
11:35 PM 33.8 °F 25.3 °F 28.4 °F 81% 29.62 in 10.0 mi ENE 11.5 mph - N/A Rain Light Rain
11:55 PM 33.8 °F 23.9 °F 28.4 °F 81% 29.62 in 10.0 mi ENE 15.0 mph - N/A   Overcast